Weather History for Augusta, GA

Change the Weather History Date:

Saturday, January 4, 2014

  Actual Average Record
Temperature  
Mean Temperature 35 °F -  
Max Temperature 41 °F 55 °F 73 °F (2004)
Min Temperature 28 °F 37 °F 21 °F (2002)
Degree Days  
Heating Degree Days 30    
Month to date heating degree days 99  
Moisture  
Dew Point 20 °F    
Average Humidity 52    
Maximum Humidity 64    
Minimum Humidity 40    
Precipitation  
Precipitation T in - - ()
Month to date precipitation 0.29  
Year to date precipitation 0.29  
Sea Level Pressure  
Sea Level Pressure 30.38 in    
Wind  
Wind Speed 7 mph (NE)    
Max Wind Speed 12 mph    
Max Gust Speed 14 mph    
Visibility 10 miles    
Events      
Averages and records for this station are not official NWS values.
T = Trace of Precipitation, MM = Missing Value Source: NWS Daily Summary

Daily Weather History Graph

Daily Weather History Graph

Search for Another Location

Airport:

Trip Planner

Search our weather history database for the weather conditions in past years. The results will help you decide how hot, cold, wet, or windy it might be!

Date:

Astronomy

Jan. 04, 2014 Rise Set
Actual Time 7:32 AM EST 5:33 PM EST
Civil Twilight 7:05 AM EST 6:01 PM EST
Nautical Twilight 6:34 AM EST 6:31 PM EST
Astronomical Twilight 6:04 AM EST 7:02 PM EST
Moon 9:49 AM EST (1/4) 9:38 PM EST (1/4)
Length of Visible Light 10h 55m
Length of Day
10h 00m
Waxing Crescent, 15% of the Moon is Illuminated
Jan 4
Waxing Crescent
Jan 7
First Quarter
Jan 15
Full
Jan 24
Last Quarter
Jan 30
New

Hourly Weather History & Observations

Time (EST) Temp. Windchill Dew Point Humidity Pressure Visibility Wind Dir Wind Speed Gust Speed Precip Events Conditions
12:53 AM 30.9 °F 24.3 °F 12.0 °F 46% 30.44 in 10.0 mi ENE 6.9 mph - N/A   Clear
1:53 AM 28.9 °F 23.9 °F 12.9 °F 51% 30.45 in 10.0 mi East 4.6 mph - N/A   Clear
2:53 AM 28.9 °F 22.8 °F 12.9 °F 51% 30.45 in 10.0 mi ENE 5.8 mph - N/A   Clear
3:53 AM 30.0 °F 22.4 °F 12.0 °F 47% 30.43 in 10.0 mi NE 8.1 mph - N/A   Clear
4:53 AM 30.0 °F 23.2 °F 12.0 °F 47% 30.42 in 10.0 mi ENE 6.9 mph - N/A   Mostly Cloudy
5:53 AM 30.0 °F 21.7 °F 10.9 °F 45% 30.43 in 10.0 mi ENE 9.2 mph - N/A   Partly Cloudy
6:25 AM 30.0 °F 21.7 °F 12.0 °F 47% 30.42 in 10.0 mi NE 9.2 mph - N/A   Overcast
6:53 AM 30.9 °F 22.8 °F 12.0 °F 46% 30.43 in 10.0 mi NE 9.2 mph - N/A   Overcast
7:53 AM 30.9 °F 23.5 °F 12.0 °F 46% 30.44 in 10.0 mi NE 8.1 mph - N/A   Overcast
8:53 AM 32.0 °F 24.8 °F 12.9 °F 45% 30.47 in 10.0 mi ENE 8.1 mph - N/A   Overcast
9:53 AM 33.1 °F 25.5 °F 12.9 °F 43% 30.47 in 10.0 mi NE 9.2 mph - N/A   Overcast
10:53 AM 35.1 °F 28.6 °F 14.0 °F 42% 30.45 in 10.0 mi NE 8.1 mph - N/A   Overcast
11:21 AM 36.0 °F 30.3 °F 15.1 °F 43% 30.42 in 10.0 mi NE 6.9 mph - N/A   Overcast
11:53 AM 37.0 °F 31.6 °F 18.0 °F 46% 30.42 in 10.0 mi NE 6.9 mph - N/A   Overcast
12:51 PM 37.4 °F 33.8 °F 21.2 °F 52% 30.38 in 10.0 mi North 4.6 mph - N/A   Overcast
12:53 PM 37.9 °F 33.5 °F 21.0 °F 51% 30.39 in 10.0 mi NNE 5.8 mph - N/A   Overcast
1:06 PM 37.9 °F 32.7 °F 21.0 °F 51% 30.37 in 10.0 mi NNE 6.9 mph - N/A   Overcast
1:16 PM 39.0 °F 35.7 °F 21.0 °F 49% 30.37 in 10.0 mi Variable 4.6 mph - N/A   Overcast
1:53 PM 39.0 °F 34.0 °F 24.1 °F 55% 30.36 in 10.0 mi North 6.9 mph - N/A   Overcast
2:53 PM 41.0 °F 35.8 °F 24.1 °F 51% 30.33 in 10.0 mi North 8.1 mph - N/A   Overcast
3:49 PM 39.2 °F 35.9 °F 26.6 °F 61% 30.33 in 10.0 mi North 4.6 mph - N/A   Overcast
3:53 PM 41.0 °F 37.1 °F 27.0 °F 57% 30.34 in 10.0 mi North 5.8 mph - N/A   Overcast
4:26 PM 41.0 °F 36.4 °F 26.1 °F 55% 30.33 in 10.0 mi NNE 6.9 mph - N/A   Overcast
4:53 PM 41.0 °F 38.0 °F 26.1 °F 55% 30.33 in 10.0 mi NNE 4.6 mph - N/A   Overcast
5:53 PM 39.9 °F 34.5 °F 27.0 °F 60% 30.32 in 10.0 mi NNE 8.1 mph - N/A   Overcast
6:53 PM 39.9 °F 34.5 °F 27.0 °F 60% 30.32 in 10.0 mi NE 8.1 mph - N/A   Overcast
7:53 PM 39.9 °F 35.1 °F 26.1 °F 58% 30.32 in 10.0 mi NE 6.9 mph - N/A   Overcast
8:40 PM 39.9 °F 35.1 °F 27.0 °F 60% 30.31 in 10.0 mi NE 6.9 mph - N/A   Overcast
8:53 PM 39.9 °F 35.8 °F 27.0 °F 60% 30.31 in 10.0 mi NE 5.8 mph - N/A   Overcast
9:53 PM 39.0 °F 33.4 °F 27.0 °F 62% 30.29 in 10.0 mi NE 8.1 mph - N/A   Overcast
10:53 PM 39.0 °F 34.0 °F 28.0 °F 65% 30.26 in 10.0 mi NE 6.9 mph - N/A   Overcast
11:53 PM 39.0 °F 35.7 °F 28.9 °F 67% 30.24 in 10.0 mi NNE 4.6 mph - N/A   Overcast